Skip Page Navigation
NASA JPL Caltech
NASA Logo - Jet Propulsion Laboratory + View the NASA Portal
+ Center for Near-Earth Object Studies
JPL Home Earth Solar System Stars & Galaxies Technology
JPL Solar System Dynamics
BODIES ORBITS EPHEMERIDES TOOLS PHYSICAL DATA DISCOVERY FAQ SITE MAP
JPL Small-Body Database Browser
Search: [ help ]  
59600 (1999 JX62)
Classification: Main-belt Asteroid          SPK-ID: 2059600
Ephemeris | Orbit Diagram | Orbital Elements | Mission Design | Physical Parameters | Discovery Circumstances | Close-Approach Data ]

[ show orbit diagram ]
Orbital Elements at Epoch 2459000.5 (2020-May-31.0) TDB
Reference: JPL 30 (heliocentric ecliptic J2000)
 Element Value Uncertainty (1-sigma)   Units 
e .04976033624630301 4.0534e-08  
a 2.717038512889798 1.3463e-08 au
q 2.581837762894246 1.0812e-07 au
i 6.017846339903394 3.9441e-06 deg
node 110.5188677254808 3.7668e-05 deg
peri 226.645076638553 5.7396e-05 deg
M 165.2584582665607 4.5144e-05 deg
tp 2458249.563326448928
(2018-May-11.06332645)
0.00020439 TDB
period 1635.844877859951
4.48
1.2158e-05
3.329e-08
d
yr
n .2200697663160825 1.6356e-09 deg/d
Q 2.852239262885349 1.4132e-08 au
  Orbit Determination Parameters
   # obs. used (total)      1504  
   data-arc span      7650 days (20.94 yr)  
   first obs. used      1999-05-10  
   last obs. used      2020-04-19  
   planetary ephem.      DE431  
   SB-pert. ephem.      SB431-N16  
   condition code      0  
   norm. resid. RMS      .5458  
   source      ORB  
   producer      Otto Matic  
   solution date      2020-May-20 11:47:41  

Additional Information
 Earth MOID = 1.57558 au 
 Jupiter MOID = 2.345 au 
 T_jup = 3.351 
[ show covariance matrix ]

Ephemeris | Orbit Diagram | Orbital Elements | Mission Design | Physical Parameters | Discovery Circumstances | Close-Approach Data ]

Physical Parameter Table
Parameter Symbol Value Units Sigma Reference Notes
absolute magnitude H 14.4   n/a MPO359151  

59600 (1999 JX62)          Discovered 1999-May-10 by LINEAR at Socorro
Reference: 20030614/Numbers.arcLast Updated: 2004-04-19

[ show close-approach data ]
Alternate Designations
 1999 JX62 = 1999 LP17 = 2000 QS101 
Ephemeris | Orbit Diagram | Orbital Elements | Mission Design | Physical Parameters | Discovery Circumstances | Close-Approach Data ]
ABOUT SSD CREDITS/AWARDS PRIVACY/COPYRIGHT GLOSSARY LINKS
FirstGov 2020-Aug-03 18:57 UT
(server date/time)  
NASA Home Page
Site Manager:   Ryan S. Park
Webmaster  Alan B. Chamberlin